User: anonymous   Login
Location: Unspecified
(0.0000°N, 0.0000°E)
Time: 00:51:00
(UTC+00:00)
Language:

YAOGAN 19 - Orbit

View from above orbital plane
View from above orbital plane
View from above satellite
View from above satellite

Ground track
Ground track

The orbit is defined by the following mean orbital elements,

1 39410U          26145.65333227 +.00000000 +00000-0 -49338-3 0 00000
2 39410 100.1106 123.0596 0009794 135.9784 224.2111 13.15582045    07
Epoch (UTC): 25 May 2026 15:40:47
Eccentricity: 0.0009794
inclination: 100.1106°
perigee height: 1194 km
apogee height: 1209 km
right ascension of ascending node: 123.0596°
argument of perigee: 135.9784°
revolutions per day: 13.15582045
mean anomaly at epoch: 224.2111°

The dashed part of the orbit path shows where the satellite is in the earth's shadow,  

DLR